カタログに戻る

STARLINK-5968

運用中通信VLEO
NORAD 56010·PAYLOAD·🇺🇸 United States

打ち上げ Mar 24, 2023 から Cape Canaveral Space Force Station

Loading…

次のパス (今後24時間)

TLE

最新Source: CelesTrak SupGP

元期: Sep 14, 2026, 20:59 UTC

1 56010C 23042AA  26257.87479167  .00039304  00000+0  14236-2 0  2577
2 56010  43.0031  71.2213 0001853 272.4333  42.2357 15.27557569    18

AllMySatでSTARLINK-5968をリアルタイム追跡

Download on the App Store